When you browse on this site, cookies collect data to enhance your experience and personalize the content and advertising you see.
Visit our Privacy Policy to learn more. By continuing to use the site, you agree to this use of cookies and data.
  • In Lithuania
  • List of Countries
  • For 7 days
  • Water Temperature
  • Satellite Maps
  • Weather Map
  • Weather Widgets
  • user-avatar
    Login

    Hourly Weather Jaunde

    Today, 19 May, Sunday

    Time Temperature Precipitation Wind Pressure Humidity
    00:00 +21°C° 0.1 mm 0 mps 698 mmHg 97%
    01:00 +20°C° 0 mm 0 mps 698 mmHg 97%
    02:00 +20°C° 0.2 mm 0 mps 698 mmHg 98%
    03:00 +20°C° 0.2 mm 0 mps 697 mmHg 98%
    04:00 +20°C° 0.2 mm 0 mps 697 mmHg 98%
    05:00 +20°C° 0.2 mm 0 mps 697 mmHg 98%
    06:00 +20°C° 0.2 mm 0 mps 697 mmHg 98%
    07:00 +21°C° 0 mm 0 mps 698 mmHg 97%
    08:00 +23°C° 0 mm 0 mps 698 mmHg 88%
    09:00 +25°C° 0 mm 0 mps 698 mmHg 79%
    10:00 +29°C° 0 mm 1 mps 699 mmHg 70%
    11:00 +29°C° 0 mm 0 mps 699 mmHg 62%
    12:00 +31°C° 0 mm 0 mps 698 mmHg 54%
    13:00 +33°C° 0 mm 0 mps 698 mmHg 46%
    14:00 +32°C° 0.6 mm 0 mps 697 mmHg 54%
    15:00 +30°C° 0.6 mm 0 mps 697 mmHg 63%
    16:00 +29°C° 0.6 mm 0 mps 696 mmHg 71%
    17:00 +29°C° 1.2 mm 1 mps 696 mmHg 77%
    18:00 +27°C° 1.2 mm 1 mps 696 mmHg 83%
    19:00 +25°C° 1.2 mm 1 mps 696 mmHg 89%
    20:00 +24°C° 0.8 mm 1 mps 696 mmHg 92%
    21:00 +24°C° 0.8 mm 1 mps 697 mmHg 94%
    22:00 +23°C° 0.8 mm 1 mps 697 mmHg 97%
    23:00 +23°C° 0.6 mm 1 mps 697 mmHg 98%

    Tomorrow, 20 May, Monday

    Time Temperature Precipitation Wind Pressure Humidity
    00:00 +23°C° 0.6 mm 1 mps 697 mmHg 98%
    01:00 +23°C° 0.6 mm 1 mps 697 mmHg 99%
    02:00 +23°C° 0 mm 1 mps 697 mmHg 99%
    03:00 +23°C° 0 mm 1 mps 697 mmHg 98%
    04:00 +23°C° 0 mm 1 mps 697 mmHg 98%
    05:00 +23°C° 0 mm 1 mps 697 mmHg 98%
    06:00 +23°C° 0 mm 1 mps 698 mmHg 97%
    07:00 +22°C° 0 mm 0 mps 698 mmHg 97%
    08:00 +25°C° 0 mm 1 mps 699 mmHg 88%
    09:00 +27°C° 0 mm 1 mps 699 mmHg 79%
    10:00 +29°C° 0 mm 1 mps 700 mmHg 71%
    11:00 +29°C° 1.1 mm 1 mps 699 mmHg 71%
    12:00 +30°C° 1.1 mm 1 mps 699 mmHg 72%
    13:00 +30°C° 1.1 mm 1 mps 698 mmHg 73%
    14:00 +30°C° 1.2 mm 1 mps 698 mmHg 73%
    15:00 +30°C° 1.2 mm 1 mps 697 mmHg 74%
    16:00 +29°C° 1.2 mm 1 mps 696 mmHg 74%
    17:00 +28°C° 0.9 mm 1 mps 696 mmHg 81%
    18:00 +26°C° 0.9 mm 1 mps 696 mmHg 88%
    19:00 +24°C° 0.9 mm 1 mps 697 mmHg 95%
    20:00 +24°C° 0 mm 1 mps 697 mmHg 96%
    21:00 +24°C° 0 mm 1 mps 698 mmHg 97%
    22:00 +23°C° 0 mm 1 mps 698 mmHg 98%
    23:00 +23°C° 0.5 mm 1 mps 698 mmHg 98%

    Day after tomorrow, 21 May, Tuesday

    Time Temperature Precipitation Wind Pressure Humidity
    00:00 +23°C° 0.5 mm 1 mps 698 mmHg 98%
    01:00 +23°C° 0.5 mm 1 mps 697 mmHg 98%
    02:00 +23°C° 0 mm 1 mps 697 mmHg 98%
    03:00 +22°C° 0 mm 1 mps 697 mmHg 98%
    04:00 +22°C° 0 mm 1 mps 697 mmHg 98%
    05:00 +22°C° 0 mm 1 mps 697 mmHg 98%
    06:00 +23°C° 0 mm 1 mps 698 mmHg 97%
    07:00 +23°C° 0 mm 1 mps 698 mmHg 97%
    08:00 +25°C° 0.1 mm 1 mps 699 mmHg 88%
    09:00 +27°C° 0.1 mm 1 mps 699 mmHg 79%
    10:00 +28°C° 0.1 mm 1 mps 700 mmHg 70%
    11:00 +28°C° 2 mm 1 mps 699 mmHg 76%
    12:00 +28°C° 2 mm 1 mps 699 mmHg 81%
    13:00 +28°C° 2 mm 1 mps 698 mmHg 86%
    14:00 +28°C° 1.6 mm 1 mps 697 mmHg 86%
    15:00 +28°C° 1.6 mm 1 mps 697 mmHg 85%
    16:00 +27°C° 1.6 mm 1 mps 696 mmHg 85%
    17:00 +26°C° 0.8 mm 1 mps 697 mmHg 89%
    18:00 +25°C° 0.8 mm 1 mps 697 mmHg 93%
    19:00 +23°C° 0.8 mm 1 mps 697 mmHg 96%
    20:00 +23°C° 0.6 mm 1 mps 698 mmHg 96%
    21:00 +21°C° 0.6 mm 0 mps 698 mmHg 96%
    22:00 +21°C° 0.6 mm 0 mps 699 mmHg 96%
    23:00 +20°C° 1.1 mm 0 mps 698 mmHg 97%

    22 May, Wednesday

    Time Temperature Precipitation Wind Pressure Humidity
    00:00 +22°C° 1.1 mm 1 mps 698 mmHg 97%
    01:00 +22°C° 1.1 mm 1 mps 698 mmHg 97%
    02:00 +22°C° 0 mm 1 mps 697 mmHg 97%
    03:00 +22°C° 0 mm 1 mps 697 mmHg 98%
    04:00 +21°C° 0 mm 1 mps 697 mmHg 98%
    05:00 +20°C° 0 mm 0 mps 697 mmHg 97%
    06:00 +20°C° 0 mm 0 mps 698 mmHg 97%
    07:00 +20°C° 0 mm 0 mps 698 mmHg 96%
    08:00 +22°C° 0 mm 0 mps 699 mmHg 87%
    09:00 +26°C° 0 mm 1 mps 699 mmHg 78%
    10:00 +28°C° 0 mm 1 mps 700 mmHg 69%
    11:00 +29°C° 0.3 mm 1 mps 699 mmHg 65%
    12:00 +30°C° 0.3 mm 1 mps 699 mmHg 61%
    13:00 +31°C° 0.3 mm 1 mps 698 mmHg 57%
    14:00 +31°C° 0.5 mm 1 mps 698 mmHg 60%
    15:00 +30°C° 0.5 mm 1 mps 697 mmHg 63%
    16:00 +30°C° 0.5 mm 1 mps 696 mmHg 66%
    17:00 +28°C° 0.9 mm 1 mps 697 mmHg 75%
    18:00 +26°C° 0.9 mm 1 mps 697 mmHg 83%
    19:00 +22°C° 0.9 mm 0 mps 697 mmHg 92%
    20:00 +22°C° 0.2 mm 0 mps 697 mmHg 93%
    21:00 +21°C° 0.2 mm 0 mps 698 mmHg 94%
    22:00 +21°C° 0.2 mm 0 mps 698 mmHg 96%
    23:00 +21°C° 0.3 mm 0 mps 698 mmHg 96%

    23 May, Thursday

    Time Temperature Precipitation Wind Pressure Humidity
    00:00 +21°C° 0.3 mm 0 mps 697 mmHg 96%
    01:00 +21°C° 0.3 mm 0 mps 697 mmHg 97%
    02:00 +21°C° 0 mm 0 mps 697 mmHg 97%
    03:00 +20°C° 0 mm 0 mps 696 mmHg 97%
    04:00 +20°C° 0 mm 0 mps 696 mmHg 98%
    05:00 +21°C° 0 mm 0 mps 697 mmHg 97%
    06:00 +21°C° 0 mm 0 mps 697 mmHg 97%
    07:00 +21°C° 0 mm 0 mps 697 mmHg 97%
    08:00 +23°C° 0 mm 0 mps 698 mmHg 90%
    09:00 +24°C° 0 mm 0 mps 698 mmHg 84%
    10:00 +26°C° 0 mm 0 mps 699 mmHg 77%
    11:00 +26°C° 0.4 mm 0 mps 698 mmHg 75%
    12:00 +29°C° 0.4 mm 1 mps 698 mmHg 72%
    13:00 +30°C° 0.4 mm 1 mps 697 mmHg 69%
    14:00 +30°C° 0.6 mm 1 mps 697 mmHg 69%
    15:00 +28°C° 0.6 mm 0 mps 696 mmHg 69%
    16:00 +28°C° 0.6 mm 0 mps 696 mmHg 69%
    17:00 +26°C° 1 mm 0 mps 696 mmHg 76%
    18:00 +24°C° 1 mm 0 mps 696 mmHg 83%
    19:00 +22°C° 1 mm 0 mps 697 mmHg 91%
    20:00 +22°C° 0.8 mm 0 mps 697 mmHg 92%
    21:00 +22°C° 0.8 mm 0 mps 698 mmHg 94%
    22:00 +21°C° 0.8 mm 0 mps 698 mmHg 96%
    23:00 +21°C° 0.7 mm 0 mps 698 mmHg 97%

    24 May, Friday

    Time Temperature Precipitation Wind Pressure Humidity
    00:00 +21°C° 0.7 mm 0 mps 697 mmHg 98%
    01:00 +21°C° 0.7 mm 0 mps 697 mmHg 98%
    02:00 +21°C° 0.1 mm 0 mps 697 mmHg 99%
    03:00 +22°C° 0.1 mm 1 mps 697 mmHg 99%
    04:00 +22°C° 0.1 mm 1 mps 697 mmHg 99%
    05:00 +23°C° 0 mm 1 mps 697 mmHg 99%
    06:00 +23°C° 0 mm 1 mps 697 mmHg 98%
    07:00 +23°C° 0 mm 1 mps 698 mmHg 98%
    08:00 +25°C° 0 mm 1 mps 698 mmHg 88%
    09:00 +27°C° 0 mm 1 mps 699 mmHg 78%
    10:00 +29°C° 0 mm 1 mps 699 mmHg 68%
    11:00 +30°C° 0.6 mm 1 mps 699 mmHg 68%
    12:00 +30°C° 0.6 mm 1 mps 698 mmHg 69%
    13:00 +31°C° 0.6 mm 1 mps 697 mmHg 69%
    14:00 +30°C° 1.2 mm 1 mps 697 mmHg 71%
    15:00 +30°C° 1.2 mm 1 mps 696 mmHg 73%
    16:00 +30°C° 1.2 mm 1 mps 696 mmHg 74%
    17:00 +28°C° 0.9 mm 1 mps 696 mmHg 81%
    18:00 +24°C° 0.9 mm 0 mps 696 mmHg 88%
    19:00 +22°C° 0.9 mm 0 mps 697 mmHg 94%
    20:00 +22°C° 0.5 mm 0 mps 697 mmHg 95%
    21:00 +22°C° 0.5 mm 0 mps 698 mmHg 97%
    22:00 +22°C° 0.5 mm 0 mps 698 mmHg 98%
    23:00 +21°C° 0.2 mm 0 mps 698 mmHg 98%
    Show more